| time (UTC) | temp C | wind direction | speed KPH | gust KPH | rain 1hr cm | rain 24hr cm | rain mn cm | humidity % | barometer mb |
| 20260506061517 | 20 | 144 | 0.0 | 0.0 | 0.00 | 0.00 | 0.00 | 46 | 1003.6 |
| 20260506044502 | 21 | 144 | 0.0 | 0.0 | 0.00 | 0.00 | 0.00 | 40 | 1003.1 |
| 20260506043101 | 22 | 144 | 0.0 | 0.0 | 0.00 | 0.00 | 0.00 | 39 | 1003.1 |
| 20260506041559 | 22 | 144 | 0.0 | 0.0 | 0.00 | 0.00 | 0.00 | 38 | 1002.6 |
| 20260506040058 | 22 | 148 | 1.6 | 0.0 | 0.00 | 0.00 | 0.00 | 37 | 1002.3 |
| 20260506034600 | 22 | 151 | 3.2 | 0.0 | 0.00 | 0.00 | 0.00 | 37 | 1002.0 |
| 20260506033057 | 22 | 157 | 1.6 | 0.0 | 0.00 | 0.00 | 0.00 | 37 | 1001.7 |
| 20260506031559 | 22 | 180 | 0.0 | 0.0 | 0.00 | 0.00 | 0.00 | 36 | 1001.4 |
| 20260506030057 | 22 | 180 | 1.6 | 0.0 | 0.00 | 0.00 | 0.00 | 36 | 1001.3 |
| 20260506024601 | 23 | 257 | 0.0 | 0.0 | 0.00 | 0.00 | 0.00 | 36 | 1001.2 |
| 20260506023100 | 23 | 255 | 0.0 | 0.0 | 0.00 | 0.00 | 0.00 | 35 | 1001.1 |
| 20260506021555 | 23 | 258 | 0.0 | 0.0 | 0.00 | 0.00 | 0.00 | 34 | 1001.0 |
| 20260506020054 | 24 | 257 | 1.6 | 0.0 | 0.00 | 0.00 | 0.00 | 32 | 1000.9 |
| 20260506014554 | 25 | 242 | 1.6 | 0.0 | 0.00 | 0.00 | 0.00 | 31 | 1000.9 |
| 20260506013054 | 25 | 266 | 6.4 | 0.0 | 0.00 | 0.00 | 0.00 | 31 | 1000.6 |
| 20260506011556 | 26 | 257 | 6.4 | 0.0 | 0.00 | 0.00 | 0.00 | 30 | 1000.5 |
| 20260506010053 | 26 | 277 | 4.8 | 0.0 | 0.00 | 0.00 | 0.00 | 29 | 1000.8 |
| 20260506004553 | 26 | 280 | 6.4 | 0.0 | 0.00 | 0.00 | 0.00 | 29 | 1001.0 |
| 20260506003053 | 26 | 263 | 8.0 | 0.0 | 0.00 | 0.00 | 0.00 | 28 | 1001.1 |
| 20260506001552 | 26 | 275 | 8.0 | 0.0 | 0.00 | 0.00 | 0.00 | 28 | 1001.4 |
| 20260506000053 | 26 | 223 | 11.3 | 0.0 | 0.00 | 0.00 | 0.00 | 28 | 1001.4 |
| 20260505234554 | 26 | 259 | 8.0 | 0.0 | 0.00 | 0.00 | 0.00 | 27 | 1001.4 |
| 20260505233051 | 27 | 277 | 9.7 | 0.0 | 0.00 | 0.00 | 0.00 | 27 | 1001.4 |
| 20260505231600 | 27 | 304 | 9.7 | 0.0 | 0.00 | 0.00 | 0.00 | 26 | 1001.3 |
| 20260505230057 | 27 | 233 | 11.3 | 0.0 | 0.00 | 0.00 | 0.00 | 25 | 1001.2 |
| 20260505224552 | 28 | 243 | 9.7 | 0.0 | 0.00 | 0.00 | 0.00 | 25 | 1001.1 |
| 20260505223049 | 28 | 219 | 9.7 | 0.0 | 0.00 | 0.00 | 0.00 | 25 | 1000.9 |
| 20260505221549 | 28 | 247 | 9.7 | 0.0 | 0.00 | 0.00 | 0.00 | 24 | 1001.3 |
| 20260505220048 | 28 | 209 | 9.7 | 0.0 | 0.00 | 0.00 | 0.00 | 24 | 1000.8 |
| 20260505214548 | 28 | 220 | 8.0 | 0.0 | 0.00 | 0.00 | 0.00 | 25 | 1001.1 |
| 20260505213055 | 28 | 225 | 8.0 | 0.0 | 0.00 | 0.00 | 0.00 | 24 | 1001.0 |
| 20260505211551 | 28 | 240 | 12.9 | 0.0 | 0.00 | 0.00 | 0.00 | 22 | 1001.3 |
| 20260505210046 | 30 | 252 | 11.3 | 0.0 | 0.00 | 0.00 | 0.00 | 22 | 1001.5 |
| 20260505204545 | 30 | 211 | 6.4 | 0.0 | 0.00 | 0.00 | 0.00 | 23 | 1001.2 |
| 20260505203046 | 30 | 304 | 6.4 | 0.0 | 0.00 | 0.00 | 0.00 | 25 | 1001.5 |
| 20260505201547 | 30 | 277 | 8.0 | 0.0 | 0.00 | 0.00 | 0.00 | 26 | 1001.8 |
| 20260505200046 | 29 | 265 | 8.0 | 0.0 | 0.00 | 0.00 | 0.00 | 24 | 1001.6 |
| 20260505194546 | 28 | 228 | 6.4 | 0.0 | 0.00 | 0.00 | 0.00 | 25 | 1001.8 |
| 20260505193044 | 28 | 229 | 8.0 | 0.0 | 0.00 | 0.00 | 0.00 | 24 | 1001.9 |
| 20260505191559 | 30 | 360 | 11.3 | 0.0 | 0.00 | 0.00 | 0.00 | 22 | 1001.9 |
| 20260505190041 | 29 | 271 | 11.3 | 0.0 | 0.00 | 0.00 | 0.00 | 24 | 1001.9 |
| 20260505184540 | 30 | 232 | 9.7 | 0.0 | 0.00 | 0.00 | 0.00 | 26 | 1002.0 |
| 20260505183041 | 30 | 246 | 9.7 | 0.0 | 0.00 | 0.00 | 0.00 | 24 | 1002.3 |
| 20260505181539 | 30 | 307 | 11.3 | 0.0 | 0.00 | 0.00 | 0.00 | 22 | 1002.3 |
| 20260505180046 | 30 | 214 | 11.3 | 0.0 | 0.00 | 0.00 | 0.00 | 25 | 1002.3 |
| 20260505174539 | 30 | 289 | 9.7 | 0.0 | 0.00 | 0.00 | 0.00 | 25 | 1002.4 |
| 20260505173034 | 29 | 283 | 11.3 | 0.0 | 0.00 | 0.00 | 0.00 | 26 | 1002.5 |
| 20260505171533 | 28 | 210 | 11.3 | 0.0 | 0.00 | 0.00 | 0.00 | 25 | 1002.6 |
| 20260505170032 | 28 | 271 | 11.3 | 0.0 | 0.00 | 0.00 | 0.00 | 25 | 1002.6 |
| 20260505164528 | 28 | 302 | 11.3 | 0.0 | 0.00 | 0.00 | 0.00 | 25 | 1002.5 |
| 20260505163029 | 28 | 238 | 11.3 | 0.0 | 0.00 | 0.00 | 0.00 | 25 | 1002.6 |
| 20260505161522 | 27 | 211 | 9.7 | 0.0 | 0.00 | 0.00 | 0.00 | 26 | 1002.6 |
| 20260505153014 | 26 | 265 | 6.4 | 0.0 | 0.00 | 0.00 | 0.00 | 28 | 1002.2 |
| 20260505151510 | 26 | 265 | 8.0 | 0.0 | 0.00 | 0.00 | 0.00 | 31 | 1002.2 |
| 20260505124544 | 18 | 193 | 3.2 | 0.0 | 0.00 | 0.00 | 0.00 | 75 | 1000.9 |
| 20260505123040 | 18 | 199 | 3.2 | 0.0 | 0.00 | 0.00 | 0.00 | 75 | 1000.7 |
| 20260505121538 | 18 | 200 | 6.4 | 0.0 | 0.00 | 0.00 | 0.00 | 76 | 1000.6 |
| 20260505120034 | 18 | 194 | 6.4 | 0.0 | 0.00 | 0.00 | 0.00 | 77 | 1000.5 |
| 20260505114533 | 18 | 194 | 4.8 | 0.0 | 0.00 | 0.00 | 0.00 | 77 | 1000.4 |
| 20260505113034 | 18 | 191 | 3.2 | 0.0 | 0.00 | 0.00 | 0.00 | 76 | 1000.3 |
| 20260505111531 | 18 | 209 | 1.6 | 0.0 | 0.00 | 0.00 | 0.00 | 76 | 1000.3 |
| 20260505101547 | 19 | 205 | 6.4 | 0.0 | 0.00 | 0.00 | 0.00 | 75 | 1000.1 |
| 20260505100052 | 19 | 185 | 4.8 | 0.0 | 0.00 | 0.00 | 0.00 | 75 | 1000.1 |
| 20260505094530 | 19 | 194 | 4.8 | 0.0 | 0.00 | 0.00 | 0.00 | 74 | 999.9 |
| 20260505093025 | 20 | 200 | 4.8 | 0.0 | 0.00 | 0.00 | 0.00 | 74 | 1000.0 |
| 20260505091522 | 20 | 199 | 4.8 | 0.0 | 0.00 | 0.00 | 0.00 | 72 | 1000.1 |
| 20260505090020 | 20 | 192 | 4.8 | 0.0 | 0.00 | 0.00 | 0.00 | 71 | 1000.1 |
| 20260505084517 | 20 | 202 | 6.4 | 0.0 | 0.00 | 0.00 | 0.00 | 70 | 999.9 |
| 20260505083014 | 21 | 212 | 8.0 | 0.0 | 0.00 | 0.00 | 0.00 | 69 | 1000.0 |
| 20260505081513 | 21 | 211 | 8.0 | 0.0 | 0.00 | 0.00 | 0.00 | 68 | 1000.3 |
| 20260505080013 | 21 | 209 | 6.4 | 0.0 | 0.00 | 0.00 | 0.00 | 67 | 1000.0 |
| 20260505074509 | 21 | 198 | 6.4 | 0.0 | 0.00 | 0.00 | 0.00 | 66 | 1000.1 |
| 20260505073019 | 21 | 189 | 9.7 | 0.0 | 0.00 | 0.00 | 0.00 | 64 | 1000.5 |
| 20260505071503 | 22 | 198 | 8.0 | 0.0 | 0.00 | 0.00 | 0.00 | 63 | 1000.5 |